DateTimeUTC,F1_A11,F1_S11,BsB_S11,BsG_S11,BsR_S11,BbsB_S11,BbsG_S11,BbsR_S11,BaB_A11,BaG_A11,BaR_A11,Tu_S11,T_S11,Uu_S11,U_S11,P_S11,T1_A11
2021-10-04T05:00:00Z,00000200,21000000,,,,,,,0000.16,0000.31,0000.21,16.4,23.7,,00.0,0667.3,30.9
2021-10-04T05:01:00Z,00000200,21000000,,,,,,,0000.27,0000.12,0000.15,16.4,23.7,,00.0,0667.3,30.9
2021-10-04T05:02:00Z,00000200,21000000,,,,,,,0000.24,0000.13,0000.22,16.4,23.7,,00.0,0667.3,30.9
2021-10-04T05:03:00Z,00000200,61000000,,,,,,,0000.13,0000.60,0000.35,16.4,23.7,,00.0,0667.3,30.9
2021-10-04T05:04:00Z,00000200,41000000,0001.07,0000.07,-000.36,-000.04,0000.24,-000.17,0000.72,0000.27,0000.09,16.8,23.6,,00.0,0668.2,30.9
2021-10-04T05:05:00Z,00000200,01000000,0007.81,0005.31,0003.74,0001.78,0001.13,0001.18,0081.86,0074.93,0059.16,16.9,23.6,,00.0,0668.2,30.9
2021-10-04T05:06:00Z,00000200,01000000,0023.11,0017.76,0011.03,0004.24,0004.35,0003.32,0314.91,0291.12,0233.34,17.0,23.6,,00.0,0668.2,30.9
2021-10-04T05:07:00Z,00000200,01000000,0018.11,0012.38,0008.05,0003.46,0003.26,0002.28,0226.80,0209.67,0168.36,17.0,23.6,,00.0,0668.2,30.9
2021-10-04T05:08:00Z,00000200,01000000,0017.79,0012.99,0007.56,0003.67,0002.97,0002.31,0225.67,0209.26,0167.37,17.0,23.6,,00.0,0668.2,30.9
2021-10-04T05:09:00Z,00000200,01000000,0015.45,0010.46,0006.34,0003.11,0002.92,0001.82,0203.06,0187.41,0150.63,17.0,23.6,,00.0,0668.2,30.9
2021-10-04T05:10:00Z,00000200,01000000,0013.96,0009.65,0006.04,0003.02,0002.28,0001.54,0186.04,0172.04,0137.60,16.9,23.6,,00.0,0668.2,30.9
2021-10-04T05:11:00Z,00000200,01000000,0012.64,0009.09,0005.79,0002.78,0002.66,0001.45,0172.25,0159.32,0127.35,16.8,23.5,,00.0,0668.2,30.9
2021-10-04T05:12:00Z,00000200,01000000,0005.98,0003.98,0002.69,0001.25,0001.13,0000.99,0083.15,0077.17,0061.93,16.8,23.5,,00.0,0668.2,30.9
2021-10-04T05:13:00Z,00000200,01000000,0009.75,0007.44,0004.17,0002.36,0001.98,0001.41,0127.65,0117.16,0094.08,16.8,23.4,,00.0,0668.2,30.9
2021-10-04T05:14:00Z,00000200,01000000,0017.00,0012.72,0007.77,0004.58,0002.96,0002.18,0215.86,0199.87,0159.92,16.7,23.4,,00.0,0668.2,30.9
2021-10-04T05:15:00Z,00000200,01000000,0023.17,0017.07,0010.11,0005.25,0003.99,0002.96,0309.78,0287.65,0231.95,16.7,23.4,,00.0,0668.2,30.9
2021-10-04T05:16:00Z,00000200,01000000,0007.09,0005.59,0003.51,0001.80,0001.27,0000.98,0111.02,0103.07,0083.23,16.7,23.4,,00.0,0668.2,30.9
2021-10-04T05:17:00Z,00000200,01000000,0002.57,0002.26,0001.41,0000.40,0000.30,0000.77,0039.07,0036.22,0029.37,16.7,23.4,,00.0,0668.2,30.9
2021-10-04T05:18:00Z,00000200,01000000,0005.01,0003.78,0002.16,0000.61,0000.93,0000.52,0057.17,0052.86,0042.47,16.8,23.4,,00.0,0668.2,30.9
2021-10-04T05:19:00Z,00000200,01000000,0004.94,0003.12,0001.95,0000.18,0000.80,0000.54,0057.41,0053.73,0043.70,16.9,23.5,,00.0,0668.2,30.9
2021-10-04T05:20:00Z,00000200,01000000,0000.79,0000.59,0000.26,0000.58,0000.31,0000.15,0009.78,0009.32,0007.49,16.9,23.5,,00.0,0668.2,31.0
2021-10-04T05:21:00Z,00000200,01000000,0001.08,0000.46,0000.33,0000.56,-000.05,0000.20,0012.22,0011.24,0008.90,17.0,23.5,,00.0,0668.2,30.9
2021-10-04T05:22:00Z,00000200,01000000,0001.27,0000.25,0000.19,-000.33,0000.35,-000.07,0004.78,0004.25,0003.70,16.9,23.5,,00.0,0668.2,30.9
2021-10-04T05:23:00Z,00000200,01000000,0000.84,0000.71,0000.23,0000.19,0000.54,0000.23,0006.27,0005.84,0004.37,16.9,23.5,,00.0,0668.2,30.9
2021-10-04T05:24:00Z,00000200,01000000,0003.28,0001.90,0000.64,0000.66,0000.47,0000.34,0028.70,0025.97,0021.10,16.9,23.5,,00.0,0668.2,30.9
2021-10-04T05:25:00Z,00000200,01000000,0005.19,0003.50,0002.36,0000.97,0001.09,0000.70,0059.52,0055.51,0044.20,16.8,23.4,,00.0,0668.1,30.9
2021-10-04T05:26:00Z,00000200,01000000,0006.26,0004.88,0002.99,0001.22,0001.33,0001.07,0080.81,0074.87,0060.30,16.8,23.4,,00.0,0668.1,30.9
2021-10-04T05:27:00Z,00000200,01000000,0005.20,0003.33,0001.96,0001.00,0000.86,0000.30,0055.13,0051.02,0041.50,16.7,23.4,,00.0,0668.1,30.9
2021-10-04T05:28:00Z,00000200,01000000,0006.64,0004.65,0002.65,0000.51,0000.78,0000.82,0073.23,0068.46,0055.70,16.7,23.4,,00.0,0668.1,30.9
2021-10-04T05:29:00Z,00000200,01000000,0008.14,0006.28,0003.68,0001.70,0001.52,0000.79,0101.53,0094.16,0076.42,16.6,23.3,,00.0,0668.1,30.9
2021-10-04T05:30:00Z,00000200,01000000,0001.42,0000.52,0000.51,-000.12,-000.01,0000.27,0015.46,0014.65,0011.84,16.6,23.3,,00.0,0668.1,30.9
2021-10-04T05:31:00Z,00000200,01000000,0000.87,0000.04,0000.14,0000.34,-000.19,0000.29,0001.97,0001.78,0001.54,16.6,23.3,,00.0,0668.1,30.9
2021-10-04T05:32:00Z,00000200,01000000,0000.03,0000.06,-000.09,0000.31,0000.18,-000.00,0001.21,0001.13,0000.86,16.7,23.3,,00.0,0668.1,30.9
2021-10-04T05:33:00Z,00000200,01000000,-000.16,0000.34,0000.22,0000.15,-000.14,-000.07,0001.03,0001.10,0000.33,16.7,23.3,,00.0,0668.1,30.9
2021-10-04T05:34:00Z,00000200,01000000,0000.12,0000.24,-000.21,-000.60,0000.03,0000.19,0000.80,0000.58,0000.93,16.8,23.4,,00.0,0668.1,30.9
2021-10-04T05:35:00Z,00000200,01000000,0000.38,-000.03,0000.06,-000.34,-000.20,0000.27,0001.06,0000.48,0000.64,16.8,23.4,,00.0,0668.1,30.9
2021-10-04T05:36:00Z,00000200,01000000,0000.40,0000.13,0000.19,0000.14,0000.27,0000.06,0000.59,0000.72,0000.56,16.9,23.4,,00.0,0668.1,30.9
2021-10-04T05:37:00Z,00000200,01000000,0000.83,0000.34,-000.20,-000.23,0000.04,-000.32,0000.30,0000.76,0000.05,16.9,23.4,,00.0,0668.1,30.9
2021-10-04T05:38:00Z,00000200,01000000,0000.12,-000.09,-000.01,-000.58,0000.03,-000.05,0000.64,0000.54,0000.43,16.8,23.4,,00.0,0668.1,30.9
2021-10-04T05:39:00Z,00000200,01000000,0000.54,0000.18,0000.08,-000.42,0000.10,-000.29,0000.39,0000.39,0000.34,16.8,23.4,,00.0,0668.1,30.9
2021-10-04T05:40:00Z,00000200,01000000,0000.33,0000.25,0000.05,-000.33,0000.23,-000.03,0000.92,0000.72,0000.81,16.8,23.4,,00.0,0668.1,30.9
2021-10-04T05:41:00Z,00000200,01000000,0000.99,-000.16,-000.06,0000.74,-000.14,-000.20,0000.45,0000.55,0000.37,16.7,23.3,,00.0,0668.1,30.9
2021-10-04T05:42:00Z,00000200,01000000,0000.76,0000.17,0000.25,0000.02,0000.36,-000.00,0000.80,0000.32,0000.17,16.7,23.3,,00.0,0668.1,30.9
2021-10-04T05:43:00Z,00000200,01000000,0000.60,0000.32,-000.17,0000.04,0000.09,0000.03,0000.39,0000.52,0000.43,16.6,23.3,,00.0,0668.1,30.9
2021-10-04T05:44:00Z,00000200,01000000,0000.04,-000.18,-000.13,-000.26,0000.22,0000.05,0000.25,0000.78,0000.23,16.6,23.3,,00.0,0668.1,30.9
2021-10-04T05:45:00Z,00000200,01000000,0000.60,0000.21,0000.01,-000.56,-000.17,-000.29,0000.97,0000.21,0000.62,16.5,23.2,,00.0,0668.1,30.9
2021-10-04T05:46:00Z,00000200,01000000,0000.10,-000.14,-000.39,-000.46,0000.17,-000.13,0000.25,0000.49,0000.46,16.6,23.2,,00.0,0668.1,30.9
2021-10-04T05:47:00Z,00000200,01000000,0000.71,-000.01,-000.08,-000.69,-000.07,0000.28,0000.96,0000.53,0000.31,16.6,23.3,,00.0,0668.1,30.9
2021-10-04T05:48:00Z,00000200,01000000,-000.12,0000.20,-000.17,-000.53,0000.28,-000.06,0000.17,0000.48,0000.38,16.6,23.3,,00.0,0668.1,30.9
2021-10-04T05:49:00Z,00000200,01000000,0000.24,0000.08,-000.03,-000.32,-000.05,0000.10,0000.75,0001.01,0000.52,16.7,23.3,,00.0,0668.1,30.9
2021-10-04T05:50:00Z,00000200,01000000,0000.62,0000.20,0000.10,0000.04,0000.21,0000.29,0000.36,-000.07,0000.20,16.8,23.3,,00.0,0668.1,30.9
2021-10-04T05:51:00Z,00000200,01000000,0000.33,0000.20,0000.20,0000.08,-000.11,-000.17,0000.56,0000.66,0000.51,16.8,23.4,,00.0,0668.1,30.9
2021-10-04T05:52:00Z,00000200,01000000,0000.17,0000.07,-000.08,-000.47,0000.05,-000.40,0000.30,0000.33,0000.34,16.9,23.4,,00.0,0668.1,30.9
2021-10-04T05:53:00Z,00000200,01000000,0000.59,-000.20,-000.08,-000.31,-000.13,-000.17,0000.45,0000.34,0000.02,16.9,23.4,,00.0,0668.1,30.9
2021-10-04T05:54:00Z,00000200,01000000,0000.43,0000.24,-000.21,-000.39,0000.45,-000.03,0000.20,0000.27,0000.34,16.9,23.5,,00.0,0668.1,30.9
2021-10-04T05:55:00Z,00000200,01000000,0000.55,0000.34,0000.03,-000.07,0000.16,0000.17,0000.33,0000.41,-000.02,16.9,23.4,,00.0,0668.1,30.9
2021-10-04T05:56:00Z,00000200,01000000,0000.70,0000.43,0000.20,-000.30,0000.11,0000.31,0004.97,0004.18,0003.35,16.8,23.4,,00.0,0668.1,30.9
2021-10-04T05:57:00Z,00000200,41000000,,,,,,,0005.98,0005.57,0004.62,16.8,23.4,,00.0,0668.2,30.9
2021-10-04T05:58:00Z,00000200,61000000,,,,,,,0000.43,0000.74,0000.39,16.4,23.5,,00.0,0667.1,30.9
2021-10-04T05:59:00Z,00000200,21000000,,,,,,,0000.81,0000.47,0000.61,16.4,23.6,,00.0,0667.1,30.9
